Ravenna, OH

9:44 AM EST on November 19, 2017 (GMT -0500)
Ravenna

Weather History for KPOV - October, 2012

Change the Weather History Date:

Thursday, October 25, 2012

  Actual Average (KCAK) Record (KCAK)
Temperature  
Mean Temperature 64 °F -  
Max Temperature 79 °F 58 °F 79 °F (1963)
Min Temperature 50 °F 40 °F 26 °F (1896)
Growing Degree Days 14 (Base 50)    
Moisture  
Dew Point 47 °F    
Average Humidity 55    
Maximum Humidity 94    
Minimum Humidity 29    
Precipitation  
Precipitation 0.00 in - - ()
Sea Level Pressure  
Sea Level Pressure 30.05 in    
Wind  
Wind Speed 3 mph (SSE)    
Max Wind Speed 12 mph    
Max Gust Speed 20 mph    
Visibility 10 miles    
Events      
Averages and records for this station are not official NWS values.
T = Trace of Precipitation, MM = Missing Value Source: NWS Daily Summary

Daily Weather History Graph

Daily Weather History Graph

Search for Another Location

Airport or City:

Trip Planner

Search our weather history database for the weather conditions in past years. The results will help you decide how hot, cold, wet, or windy it might be!

Date:

Astronomy

Oct. 25, 2012 Rise Set
Actual Time 7:48 AM EDT 6:28 PM EDT
Civil Twilight 7:20 AM EDT 6:57 PM EDT
Nautical Twilight 6:47 AM EDT 7:29 PM EDT
Astronomical Twilight 6:15 AM EDT 8:01 PM EDT
Moon 4:16 PM EDT (10/25) 3:41 AM EDT (10/25)
Length of Visible Light 11h 36m
Length of Day
10h 40m
Waxing Gibbous, 84% of the Moon is Illuminated
Oct 25
Waxing Gibbous
Oct 29
Full
Nov 6
Last Quarter
Nov 13
New
Nov 20
First Quarter

Hourly Weather History & Observations

Time (EDT) Temp. Dew Point Humidity Pressure Visibility Wind Dir Wind Speed Gust Speed Precip Events Conditions
12:14 AM 55.6 °F 51.4 °F 86% 30.09 in 10.0 mi SE 4.6 mph - N/A   Clear
12:34 AM 58.6 °F 51.3 °F 76% 30.09 in 10.0 mi SE 3.5 mph - N/A   Clear
12:54 AM 56.5 °F 50.0 °F 79% 30.09 in 10.0 mi SE 3.5 mph - N/A   Clear
1:14 AM 58.1 °F 50.2 °F 75% 30.09 in 10.0 mi SE 3.5 mph - N/A   Clear
1:33 AM 58.3 °F 50.4 °F 75% 30.09 in 10.0 mi SE 3.5 mph - N/A   Clear
1:54 AM 58.3 °F 49.8 °F 73% 30.08 in 10.0 mi SE 3.5 mph - N/A   Clear
2:14 AM 58.6 °F 49.6 °F 72% 30.08 in 10.0 mi SE 3.5 mph - N/A   Clear
2:34 AM 58.3 °F 49.5 °F 72% 30.08 in 10.0 mi Calm Calm - N/A   Clear
2:54 AM 57.9 °F 49.3 °F 73% 30.08 in 10.0 mi SE 3.5 mph - N/A   Clear
3:33 AM 56.5 °F 48.7 °F 75% 30.08 in 10.0 mi SE 3.5 mph - N/A   Clear
3:54 AM 56.7 °F 48.7 °F 75% 30.07 in 10.0 mi Calm Calm - N/A   Clear
4:14 AM 55.4 °F 48.4 °F 77% 30.07 in 10.0 mi Calm Calm - N/A   Clear
4:34 AM 54.1 °F 47.7 °F 79% 30.08 in 10.0 mi Calm Calm - N/A   Clear
4:54 AM 52.2 °F 47.7 °F 85% 30.08 in 10.0 mi Calm Calm - N/A   Clear
5:14 AM 52.7 °F 48.2 °F 85% 30.08 in 10.0 mi Calm Calm - N/A   Clear
5:33 AM 52.9 °F 48.0 °F 84% 30.09 in 10.0 mi Calm Calm - N/A   Clear
5:54 AM 52.9 °F 47.5 °F 82% 30.09 in 10.0 mi Calm Calm - N/A   Scattered Clouds
6:14 AM 51.8 °F 47.1 °F 84% 30.09 in 10.0 mi Calm Calm - N/A   Scattered Clouds
6:33 AM 52.0 °F 48.0 °F 86% 30.09 in 10.0 mi Calm Calm - N/A   Clear
6:54 AM 52.7 °F 48.0 °F 84% 30.09 in 10.0 mi Calm Calm - N/A   Clear
7:14 AM 50.0 °F 46.9 °F 89% 30.09 in 10.0 mi Calm Calm - N/A   Clear
7:33 AM 50.2 °F 47.8 °F 92% 30.10 in 10.0 mi Calm Calm - N/A   Clear
7:54 AM 50.0 °F 48.2 °F 94% 30.10 in 10.0 mi Calm Calm - N/A   Clear
8:14 AM 51.3 °F 48.0 °F 89% 30.10 in 10.0 mi Calm Calm - N/A   Clear
8:34 AM 54.9 °F 48.7 °F 80% 30.10 in 10.0 mi Calm Calm - N/A   Clear
9:34 AM 63.7 °F 49.3 °F 59% 30.10 in 10.0 mi Calm Calm - N/A   Clear
9:54 AM 65.3 °F 49.3 °F 56% 30.10 in 10.0 mi SSE 4.6 mph - N/A   Clear
10:14 AM 67.5 °F 48.9 °F 51% 30.10 in 10.0 mi South 3.5 mph - N/A   Clear
10:33 AM 69.1 °F 48.6 °F 48% 30.10 in 10.0 mi SSW 5.8 mph - N/A   Clear
10:54 AM 70.5 °F 48.6 °F 46% 30.10 in 10.0 mi Calm Calm - N/A   Clear
11:34 AM 73.0 °F 48.4 °F 42% 30.10 in 10.0 mi SSE 4.6 mph - N/A   Clear
11:54 AM 74.7 °F 48.7 °F 40% 30.09 in 10.0 mi South 6.9 mph - N/A   Clear
12:14 PM 75.7 °F 47.5 °F 37% 30.09 in 10.0 mi SSE 4.6 mph - N/A   Clear
12:33 PM 76.3 °F 46.0 °F 34% 30.08 in 10.0 mi SSW 6.9 mph - N/A   Clear
12:54 PM 77.2 °F 46.2 °F 33% 30.06 in 10.0 mi South 3.5 mph - N/A   Clear
1:14 PM 77.4 °F 45.3 °F 32% 30.05 in 10.0 mi SSE 9.2 mph - N/A   Clear
1:33 PM 77.5 °F 45.3 °F 32% 30.05 in 10.0 mi South 6.9 mph - N/A   Clear
1:54 PM 78.1 °F 45.5 °F 32% 30.04 in 10.0 mi South 8.1 mph 19.6 mph N/A   Clear
2:14 PM 79.0 °F 46.4 °F 32% 30.03 in 10.0 mi South 5.8 mph - N/A   Clear
2:33 PM 79.0 °F 44.2 °F 29% 30.03 in 10.0 mi SSW 9.2 mph - N/A   Clear
2:54 PM 78.8 °F 44.1 °F 29% 30.02 in 10.0 mi South 11.5 mph - N/A   Clear
3:14 PM 78.8 °F 44.2 °F 29% 30.01 in 10.0 mi SSW 5.8 mph 18.4 mph N/A   Clear
3:34 PM 79.0 °F 44.2 °F 29% 30.01 in 10.0 mi South 8.1 mph - N/A   Clear
3:54 PM 79.2 °F 44.4 °F 29% 30.01 in 10.0 mi SSW 4.6 mph - N/A   Clear
4:14 PM 78.8 °F 43.5 °F 29% 30.00 in 10.0 mi SSW 6.9 mph - N/A   Clear
4:33 PM 78.8 °F 43.9 °F 29% 29.99 in 10.0 mi Calm Calm - N/A   Clear
4:53 PM 78.6 °F 44.4 °F 30% 29.99 in 10.0 mi South 6.9 mph - N/A   Clear
5:14 PM 77.5 °F 43.9 °F 30% 29.99 in 10.0 mi South 6.9 mph - N/A   Clear
5:33 PM 77.4 °F 43.7 °F 30% 29.99 in 10.0 mi South 6.9 mph - N/A   Clear
5:54 PM 77.0 °F 43.3 °F 30% 29.99 in 10.0 mi South 5.8 mph - N/A   Clear
6:14 PM 75.2 °F 43.2 °F 32% 29.99 in 10.0 mi South 5.8 mph - N/A   Clear
6:34 PM 73.9 °F 43.0 °F 33% 30.00 in 10.0 mi South 3.5 mph - N/A   Clear
6:54 PM 71.2 °F 44.4 °F 38% 30.00 in 10.0 mi South 3.5 mph - N/A   Clear
7:14 PM 70.3 °F 44.8 °F 40% 30.00 in 10.0 mi SSE 3.5 mph - N/A   Clear
7:33 PM 70.2 °F 44.6 °F 40% 30.00 in 10.0 mi Calm Calm - N/A   Clear
7:54 PM 69.4 °F 44.8 °F 41% 30.00 in 10.0 mi Calm Calm - N/A   Clear
8:14 PM 67.5 °F 45.0 °F 44% 30.00 in 10.0 mi Calm Calm - N/A   Clear
8:34 PM 66.6 °F 45.0 °F 46% 30.00 in 10.0 mi Calm Calm - N/A   Clear
8:54 PM 64.9 °F 45.3 °F 49% 29.99 in 10.0 mi Calm Calm - N/A   Clear
9:14 PM 67.5 °F 45.0 °F 44% 29.99 in 10.0 mi SSE 3.5 mph - N/A   Clear
9:33 PM 66.6 °F 45.1 °F 46% 29.99 in 10.0 mi SSE 3.5 mph - N/A   Clear
9:54 PM 66.9 °F 45.1 °F 45% 29.99 in 10.0 mi SSE 3.5 mph - N/A   Clear
10:14 PM 65.7 °F 45.3 °F 48% 29.98 in 10.0 mi Calm Calm - N/A   Clear
10:33 PM 64.2 °F 45.5 °F 51% 29.98 in 10.0 mi Calm Calm - N/A   Clear
10:54 PM 62.1 °F 46.2 °F 56% 29.99 in 10.0 mi Calm Calm - N/A   Clear
11:14 PM 61.5 °F 45.7 °F 56% 29.99 in 10.0 mi Calm Calm - N/A   Clear
11:33 PM 59.4 °F 45.5 °F 60% 29.99 in 10.0 mi Calm Calm - N/A   Clear
11:54 PM 60.6 °F 45.5 °F 57% 29.98 in 10.0 mi Calm Calm - N/A   Clear